This is the latest recevied weather packets stored in our database for station/object IU1OLT-6. If no packets are shown the sender has not sent any weather packets the latest 10 day(s).
| Time | Temp. | Humidity | Pressure | Rain* | Wind** | Luminosity | Snow |
|---|---|---|---|---|---|---|---|
| 1788116198 | 16.11° C | 73% | 1012.9 hPa | 0 mm | - | - | - |
| 1788115238 | 16.11° C | 74% | 1012.7 hPa | 0 mm | - | - | - |
| 1788114182 | 16.11° C | 78% | 1012.5 hPa | 0 mm | - | - | - |
| 1788113222 | 16.11° C | 80% | 1012.4 hPa | 0 mm | - | - | - |
| 1788112262 | 16.67° C | 87% | 1012.3 hPa | 0 mm | - | - | - |
| 1788111302 | 17.22° C | 88% | 1012.2 hPa | 0 mm | - | - | - |
| 1788110342 | 16.67° C | 91% | 1012 hPa | 0 mm | - | - | - |
| 1788109392 | 16.11° C | 92% | 1012.2 hPa | 0 mm | - | - | - |
| 1788108422 | 16.67° C | 91% | 1012.1 hPa | 0 mm | - | - | - |
| 1788107462 | 16.67° C | 92% | 1012.1 hPa | 0 mm | - | - | - |
| 1788106502 | 17.22° C | 91% | 1012.2 hPa | 0 mm | - | - | - |
| 1788105542 | 16.67° C | 92% | 1012.2 hPa | 0 mm | - | - | - |
| 1788104582 | 17.22° C | 92% | 1012.3 hPa | 0 mm | - | - | - |
| 1788103682 | 17.22° C | 90% | 1012.4 hPa | 0 mm | - | - | - |
| 1788102758 | 17.22° C | 90% | 1012.5 hPa | 0 mm | - | - | - |
| 1788101798 | 17.78° C | 88% | 1012.5 hPa | 0 mm | - | - | - |
| 1788100838 | 17.22° C | 87% | 1012.5 hPa | 0 mm | - | - | - |
| 1788099782 | 17.78° C | 87% | 1012.5 hPa | 0 mm | - | - | - |
| 1788098822 | 17.78° C | 85% | 1012.5 hPa | 0 mm | - | - | - |
| 1788097910 | 17.22° C | 87% | 1012.6 hPa | 0 mm | - | - | - |
| 1788096902 | 17.78° C | 84% | 1012.6 hPa | 0 mm | - | - | - |
| 1788095942 | 18.33° C | 81% | 1012.7 hPa | 0 mm | - | - | - |
| 1788094982 | 17.22° C | 83% | 1012.8 hPa | 0 mm | - | - | - |
| 1788094022 | 18.33° C | 76% | 1012.9 hPa | 0 mm | - | - | - |
| 1788093062 | 18.89° C | 74% | 1012.9 hPa | 0 mm | - | - | - |
* Rain latest hour (hover to see other rain measurements)
** Current wind speed in m/s (hover to see current wind gust speed)